[[{"header":{"parameterUnit":"m.s-1","parameterCategory":1,"la1":30.2991,"la2":30.254,"lo1":-89.0895,"lo2":-89.0444,"dy":0.0017,"dx":0.0017,"nx":28,"ny":28,"refTime":"2025-12-19T09:00:00:Z","depth":0,"parameterNumber":2,"parameterNumberName":"U-component_of_WINDS"},"data":[0,0,0,0,0,0,0,0,0,0,0,0,0,0,0,0,0,0,0,0,0,0,0,0,0,0,0,0,0,0,0,0,0,0,0,0,0,0,0,0,0,0,0,0,0,0,0,0,0,0,0,0,0,0,0,0,0,0,0.16,0.1599,0,0.1573,0.1572,0.1572,0.1524,0.1523,0.1522,0.1521,0.1494,0.1494,0.1494,0,0,0,0,0,0,0,0,0,0,0,0,0,0.161,0.161,0.16,0.1599,0.1599,0.1573,0.1572,0.1572,0.1524,0.1523,0.1522,0.1521,0.1494,0.1494,0.1494,0,0,0,0,0,0,0,0,0,0,0,0,0,0.1597,0.161,0.16,0.1572,0.1569,0.1573,0.1572,0.1572,0.1524,0.1523,0.1521,0.152,0.1494,0.1494,0.1494,0.1524,0,0,0.1495,0.1495,0,0,0,0,0,0,0,0,0.1597,0.1596,0.1576,0.1574,0.157,0.155,0.1566,0.1556,0.1524,0.1541,0.1521,0.1519,0.1514,0.1512,0.151,0.1522,0.1521,0.1495,0.1495,0.1495,0.1495,0,0,0,0,0,0,0,0.1598,0.1597,0.1589,0.1576,0.1572,0.1561,0.1557,0.1564,0.1536,0.154,0.1536,0.1533,0.1512,0.151,0.1509,0.1521,0.1495,0.1495,0.1496,0.1496,0.1556,0.1558,0,0,0,0,0,0,0.1603,0.1598,0.159,0.1588,0.1581,0.1562,0.1558,0.1558,0.1535,0.1531,0.1535,0.1531,0.1511,0.1509,0.1508,0.1542,0.1495,0.1496,0.1496,0.1555,0.1557,0.1558,0,0,0,0,0,0,0.1604,0.1603,0.1591,0.1592,0.159,0.1563,0.1564,0.1558,0.1556,0.1532,0.1527,0.1538,0.151,0.1508,0.152,0.154,0.1496,0.1496,0.1553,0.1556,0.1558,0.1609,0,0,0,0,0,0,0.1604,0.1603,0.1614,0.1593,0.159,0.1603,0.1565,0.1559,0.1557,0.1552,0.1534,0.1529,0.1508,0.152,0.1521,0.154,0.1496,0.1551,0.1554,0.1557,0.1605,0.1613,0.1619,0,0,0,0,0,0.1605,0.1629,0.1615,0.1614,0.1603,0.1604,0.1603,0.1578,0.1559,0.1569,0.1554,0.153,0.1538,0.1522,0.1522,0.1541,0.155,0.1553,0.1557,0.1602,0.1611,0.1619,0,0,0,0,0,0,0.1654,0.1626,0.161,0.1628,0.1619,0.1596,0.1609,0.1588,0.1585,0.1581,0.155,0.1546,0.1563,0.1553,0.1536,0.1569,0.154,0.1544,0.1575,0.1583,0.159,0.1592,0.1496,0,0,0,0,0,0.1667,0.167,0.1646,0.1665,0.1661,0.1636,0.1636,0.1618,0.1607,0.1603,0.1588,0.1579,0.158,0.1581,0.158,0.1603,0.1599,0.1617,0.1624,0.1629,0.1633,0.1646,0.1654,0.1569,0.1569,0.1569,0,0,0.1694,0.1679,0.1683,0.1674,0.1665,0.167,0.1633,0.164,0.1643,0.1604,0.1615,0.1604,0.1592,0.161,0.1618,0.1603,0.1655,0.1633,0.1638,0.1639,0.165,0.1658,0.1665,0.1572,0.1571,0.1571,0,0,0.1745,0.1734,0.1749,0.1741,0.1727,0.171,0.1714,0.1694,0.1686,0.1696,0.1667,0.1671,0.1672,0.1665,0.1662,0.1712,0.169,0.1712,0.1748,0.176,0.1767,0.1773,0.1792,0.1799,0.1716,0.1716,0.1716,0,0.178,0.1786,0.1759,0.1768,0.1765,0.173,0.1745,0.1738,0.1726,0.1725,0.1708,0.171,0.1699,0.1716,0.1728,0.1726,0.173,0.1714,0.1768,0.1774,0.1779,0.1796,0.1803,0.1718,0.1718,0.1718,0.1718,0,0.1831,0.1835,0.1849,0.1838,0.1836,0.1848,0.1823,0.1825,0.1808,0.1793,0.1805,0.179,0.1787,0.1789,0.1771,0.1804,0.1795,0.1774,0.1744,0.179,0.1806,0.1813,0.1723,0.1722,0.1721,0.172,0,0,0.1912,0.1886,0.1892,0.1887,0.1869,0.1873,0.1883,0.1879,0.1882,0.1875,0.1883,0.1886,0.1866,0.1862,0.1844,0.1855,0.1897,0.1832,0.1832,0.1846,0.1932,0.1949,0.1957,0.1882,0.1883,0.1884,0.1934,0,0.1961,0.1977,0.1954,0.1976,0.198,0.1947,0.1956,0.1947,0.1934,0.1936,0.1921,0.1924,0.1897,0.1895,0.1904,0.1889,0.1914,0.1885,0.189,0.1891,0.1895,0.1965,0.1983,0.2031,0.194,0.1941,0.1941,0,0.2019,0.2015,0.2038,0.202,0.2021,0.203,0.2025,0.2027,0.2017,0.2006,0.2002,0.198,0.199,0.1961,0.1975,0.1956,0.1957,0.195,0.1951,0.1951,0.192,0.1969,0.2045,0.2053,0.1951,0.195,0.1949,0,0.2078,0.2078,0.2091,0.2088,0.2067,0.2075,0.2066,0.2054,0.2054,0.205,0.2049,0.2046,0.2045,0.2043,0.2021,0.2002,0.2038,0.2007,0.203,0.2031,0.204,0.204,0.2119,0.2039,0.2039,0.2038,0.2038,0,0.2135,0.215,0.2117,0.2126,0.2143,0.2115,0.2133,0.2121,0.2111,0.2117,0.2088,0.2095,0.2065,0.2068,0.2051,0.2066,0.2065,0.2057,0.2053,0.206,0.2062,0.2061,0.2057,0.204,0.204,0.204,0.2039,0,0.2203,0.2181,0.2195,0.2174,0.217,0.2183,0.2166,0.2173,0.2158,0.2167,0.2167,0.2143,0.2146,0.2124,0.2122,0.2111,0.2134,0.2123,0.2138,0.2135,0.216,0.2158,0.2242,0.2252,0.2165,0.2166,0.2166,0,0.2241,0.2252,0.2234,0.2236,0.2229,0.2233,0.2232,0.2206,0.2207,0.2196,0.2205,0.2205,0.2204,0.221,0.2193,0.2192,0.2182,0.2211,0.2182,0.2189,0.2184,0.2184,0.2185,0.2218,0.2219,0.222,0.2221,0,0.2311,0.23,0.2301,0.2298,0.2298,0.2294,0.2289,0.2292,0.2264,0.2266,0.2269,0.2268,0.2267,0.2268,0.2264,0.2256,0.2234,0.223,0.2236,0.2244,0.2252,0.2249,0.2156,0.2228,0.2228,0.2227,0.2227,0.2226,0.2366,0.2375,0.2363,0.2365,0.2358,0.2354,0.236,0.2346,0.2348,0.2345,0.2329,0.2335,0.2325,0.2317,0.2311,0.2316,0.2301,0.2309,0.2311,0.2314,0.2319,0.2251,0.2315,0.2314,0.2314,0.2314,0.2314,0,0.2435,0.2426,0.2428,0.2422,0.2423,0.2402,0.2395,0.2398,0.2404,0.2396,0.2396,0.24,0.2401,0.2384,0.2383,0.239,0.238,0.2391,0.2391,0.2389,0.2331,0.2327,0.2399,0.2399,0.2399,0.2399,0.2399,0.2399,0.2471,0.2485,0.2474,0.2484,0.2475,0.2481,0.2479,0.2475,0.2469,0.2474,0.2475,0.2465,0.2454,0.2452,0.2453,0.2448,0.2449,0.2464,0.2456,0.2402,0.2393,0.2385,0.2381,0.2464,0.2464,0.2514,0.2514,0.2514]},{"header":{"parameterUnit":"m.s-1","parameterCategory":1,"la1":30.2991,"la2":30.254,"lo1":-89.0895,"lo2":-89.0444,"dy":0.0017,"dx":0.0017,"nx":28,"ny":28,"refTime":"2025-12-19T09:00:00:Z","depth":0,"parameterNumber":3,"parameterNumberName":"V-component_of_WINDS"},"data":[0,0,0,0,0,0,0,0,0,0,0,0,0,0,0,0,0,0,0,0,0,0,0,0,0,0,0,0,0,0,0,0,0,0,0,0,0,0,0,0,0,0,0,0,0,0,0,0,0,0,0,0,0,0,0,0,0,0,2.2087,2.2089,0,2.2319,2.2321,2.2324,2.2427,2.2427,2.2427,2.2426,2.2674,2.2681,2.2688,0,0,0,0,0,0,0,0,0,0,0,0,0,2.1743,2.1748,2.2086,2.2089,2.2092,2.2318,2.2321,2.2325,2.2428,2.2427,2.2427,2.2426,2.2672,2.268,2.2688,0,0,0,0,0,0,0,0,0,0,0,0,0,2.1925,2.175,2.2086,2.217,2.218,2.2318,2.2322,2.2326,2.2428,2.2427,2.2427,2.2426,2.2669,2.2679,2.269,2.2763,0,0,2.2721,2.2726,0,0,0,0,0,0,0,0,2.1915,2.1938,2.2155,2.2165,2.2176,2.2343,2.2291,2.2473,2.2428,2.2334,2.2426,2.2426,2.2565,2.2584,2.2629,2.2775,2.2785,2.2722,2.2728,2.2733,2.2736,0,0,0,0,0,0,0,2.1902,2.1929,2.2179,2.2158,2.2171,2.22,2.2226,2.2326,2.245,2.2342,2.235,2.2376,2.2571,2.2619,2.2636,2.2789,2.2722,2.2731,2.2737,2.2741,2.3009,2.301,0,0,0,0,0,0,2.1874,2.1917,2.2171,2.2186,2.2041,2.2207,2.2235,2.229,2.2449,2.2472,2.2376,2.238,2.2601,2.2623,2.2645,2.2743,2.2733,2.2742,2.2748,2.3008,2.301,2.301,0,0,0,0,0,0,2.1866,2.1896,2.2162,2.2054,2.209,2.2213,2.2274,2.2295,2.2343,2.2474,2.2498,2.2401,2.2602,2.263,2.2733,2.2753,2.2747,2.2756,2.3007,2.3009,2.301,2.2938,0,0,0,0,0,0,2.1856,2.1892,2.1919,2.2053,2.2095,2.2243,2.2276,2.23,2.2359,2.2367,2.2504,2.2527,2.2604,2.2717,2.2743,2.2767,2.2765,2.3006,2.3008,2.301,2.2939,2.2936,2.2934,0,0,0,0,0,2.1843,2.1891,2.192,2.195,2.213,2.2243,2.2268,2.2352,2.236,2.239,2.2475,2.2523,2.2746,2.2726,2.2757,2.2784,2.3005,2.3007,2.3009,2.294,2.2937,2.2934,0,0,0,0,0,0,2.176,2.191,2.1944,2.2036,2.2125,2.226,2.23,2.2346,2.2438,2.2441,2.2545,2.2576,2.267,2.2738,2.2713,2.2865,2.288,2.2888,2.2817,2.2815,2.2813,2.2795,2.2773,0,0,0,0,0,2.1751,2.1827,2.1956,2.2025,2.2068,2.2176,2.2228,2.2285,2.2384,2.2424,2.2516,2.2613,2.2705,2.2764,2.2856,2.2949,2.2982,2.2983,2.2981,2.2978,2.2985,2.3041,2.3043,2.3017,2.3017,2.3017,0,0,2.1736,2.1828,2.187,2.201,2.2087,2.2166,2.2208,2.229,2.2351,2.2438,2.2539,2.261,2.2726,2.2823,2.2872,2.2883,2.2999,2.2981,2.2978,2.2986,2.3043,2.3046,2.3048,2.3019,2.3018,2.3018,0,0,2.1749,2.1824,2.1891,2.1966,2.2079,2.2151,2.2166,2.2295,2.2344,2.2447,2.2514,2.259,2.2746,2.2826,2.2887,2.293,2.2978,2.2957,2.2946,2.3,2.3002,2.3004,2.3021,2.3026,2.2963,2.2963,2.2963,0,2.1717,2.1835,2.192,2.1998,2.2059,2.2138,2.2208,2.2278,2.2417,2.2459,2.2469,2.2667,2.275,2.2869,2.2879,2.2925,2.2949,2.2942,2.2994,2.2997,2.3001,2.3018,2.3024,2.296,2.296,2.296,2.2961,0,2.1791,2.1872,2.1913,2.2041,2.2107,2.2181,2.228,2.2337,2.2388,2.246,2.2565,2.2668,2.2782,2.2815,2.2867,2.2942,2.2945,2.2973,2.2991,2.2998,2.3017,2.3024,2.2955,2.2956,2.2957,2.2958,0,0,2.1758,2.1931,2.1945,2.2005,2.2136,2.2203,2.2281,2.239,2.2438,2.2532,2.2602,2.2732,2.2759,2.2828,2.289,2.2937,2.2966,2.296,2.2964,2.2959,2.3058,2.3036,2.3042,2.2999,2.3,2.3002,2.3048,0,2.179,2.1929,2.2008,2.2117,2.2195,2.2271,2.234,2.243,2.2499,2.2578,2.2656,2.2747,2.2774,2.2816,2.2866,2.2952,2.2988,2.295,2.3069,2.3072,2.3038,2.3052,2.303,2.3069,2.3056,2.3057,2.3058,0,2.1846,2.1934,2.2049,2.2171,2.2207,2.2267,2.2374,2.2447,2.2552,2.26,2.2676,2.2737,2.2827,2.2836,2.2963,2.2935,2.2989,2.3039,2.3042,2.3058,2.3066,2.3069,2.3083,2.3089,2.307,2.3069,2.3068,0,2.1812,2.196,2.2048,2.2097,2.2242,2.2282,2.2346,2.2449,2.251,2.2605,2.2646,2.275,2.2808,2.289,2.2979,2.2978,2.3098,2.3115,2.3142,2.314,2.3165,2.3163,2.3189,2.3197,2.3197,2.3197,2.3197,0,2.184,2.1907,2.2035,2.2089,2.2168,2.226,2.2337,2.2407,2.2499,2.2571,2.2645,2.2712,2.2825,2.2907,2.2978,2.3073,2.3099,2.3142,2.3161,2.3136,2.3131,2.3174,2.3174,2.3199,2.3198,2.3198,2.3198,0,2.1815,2.1903,2.2004,2.2132,2.2166,2.2219,2.2331,2.2389,2.2461,2.2551,2.2578,2.2694,2.2794,2.2891,2.3027,2.3075,2.317,2.3194,2.3133,2.3144,2.3167,2.3163,2.3223,2.3237,2.3233,2.3233,2.3233,0,2.1828,2.1881,2.2014,2.2065,2.2125,2.2208,2.2269,2.2363,2.2424,2.2548,2.2591,2.2696,2.2785,2.2943,2.3042,2.3146,2.3174,2.3188,2.3191,2.3165,2.3176,2.3172,2.3179,2.3186,2.3185,2.3185,2.3184,0,2.1841,2.1881,2.1965,2.2063,2.2133,2.2217,2.2303,2.2343,2.2453,2.2519,2.2621,2.2689,2.2827,2.2931,2.3047,2.3117,2.3171,2.3182,2.3195,2.3171,2.3134,2.3156,2.3128,2.3181,2.3181,2.3182,2.3182,2.3182,2.1837,2.1888,2.1989,2.208,2.2154,2.2233,2.2293,2.2372,2.2457,2.2573,2.2624,2.2727,2.2834,2.2994,2.3063,2.3148,2.3161,2.3178,2.3183,2.3186,2.3181,2.3119,2.3169,2.3169,2.317,2.317,2.317,0,2.1856,2.1923,2.2006,2.2122,2.2195,2.2234,2.2332,2.2391,2.2479,2.2572,2.2657,2.2775,2.2877,2.2982,2.3091,2.3139,2.3166,2.3165,2.3163,2.3179,2.3163,2.3142,2.3141,2.3141,2.3141,2.3141,2.3141,2.3141,2.1873,2.1962,2.2014,2.2142,2.2212,2.231,2.2362,2.2437,2.2511,2.2638,2.2721,2.2788,2.2887,2.3004,2.31,2.3129,2.3167,2.3158,2.3194,2.3178,2.3179,2.3181,2.3162,2.3165,2.3165,2.3204,2.3204,2.3204]}]]